Date,TemperatureHighF,TemperatureAvgF,TemperatureLowF,DewpointHighF,DewpointAvgF,DewpointLowF,HumidityHigh,HumidityAvg,HumidityLow,PressureMaxIn,PressureMinIn,WindSpeedMaxMPH,WindSpeedAvgMPH,GustSpeedMaxMPH,PrecipitationSumIn
2013-1-1,33.0,30.0,23.0,33.0,30.0,23.0,100,100,100,30.02,29.89,9,3,13,0.04
2013-1-2,29.0,19.2,10.0,27.3,18.0,10.0,100,95,66,30.11,30.01,6,1,7,0.01
2013-1-3,39.0,21.5,7.0,31.7,20.3,7.0,100,96,68,30.20,30.03,10,2,12,0.02
2013-1-4,36.0,28.2,20.0,30.7,25.2,20.0,100,89,64,30.26,30.16,11,2,16,0.02
2013-1-5,42.0,29.7,16.0,38.0,26.6,16.0,100,90,60,30.19,30.01,9,1,12,0.15
2013-1-6,37.0,32.5,23.0,37.0,30.7,23.0,100,93,81,30.22,29.91,12,3,19,0.06
2013-1-7,40.0,26.6,14.0,33.0,24.0,14.0,100,91,64,30.32,30.07,8,2,14,0.03
2013-1-8,53.0,34.1,20.0,38.8,29.3,20.0,100,85,47,30.16,30.05,9,1,10,0.02
2013-1-9,56.0,43.2,33.0,52.0,40.9,33.0,100,92,61,30.36,30.06,7,1,10,0.12
2013-1-10,50.0,40.5,30.0,50.0,39.4,30.0,100,96,72,30.35,29.91,9,3,13,0.23
2013-1-11,63.0,56.0,50.0,58.4,54.2,50.0,100,94,70,29.91,29.77,13,3,16,0.72
2013-1-12,66.0,60.1,54.0,66.0,59.3,51.5,100,98,85,29.93,29.64,12,3,17,0.98
2013-1-13,66.0,40.6,25.0,66.0,40.6,25.0,100,100,100,30.08,29.57,12,4,23,1.62
2013-1-14,28.0,22.9,19.0,27.0,22.6,19.0,100,99,88,30.28,30.09,9,2,13,0.00
2013-1-15,21.0,19.7,19.0,21.0,19.7,19.0,100,100,100,30.20,30.18,1,0,3,0.00
2013-1-16,31.0,30.1,29.0,28.7,27.2,24.9,95,89,78,29.95,29.90,6,2,8,0.00
2013-1-17,47.0,33.6,23.0,37.1,28.7,22.5,100,84,54,30.27,29.94,14,3,18,0.00
2013-1-18,46.0,31.0,16.0,32.0,23.0,16.0,100,76,39,30.37,30.08,9,2,15,0.00
2013-1-19,58.0,47.2,40.0,39.1,30.1,23.3,74,52,39,30.08,29.84,10,5,24,0.00
2013-1-20,47.0,34.9,25.0,40.5,17.9,8.7,81,51,27,30.14,29.88,12,5,22,0.00
2013-1-21,25.0,19.0,11.0,20.2,10.3,1.0,98,70,42,30.46,30.00,16,5,20,0.00
2013-1-22,20.0,12.1,5.0,6.4,2.6,-0.7,94,67,44,30.38,30.24,14,4,15,0.00
2013-1-23,37.0,22.0,8.0,21.7,12.5,2.3,100,69,36,30.36,30.10,16,2,16,0.00
2013-1-24,28.0,22.1,14.0,19.8,8.7,-1.2,95,59,32,30.58,30.15,20,5,20,0.00
2013-1-25,29.0,23.1,19.0,26.5,17.4,4.4,100,81,46,30.35,30.06,13,2,15,0.00
2013-1-26,43.0,27.6,16.0,26.8,20.1,16.0,100,77,37,30.39,30.12,13,2,13,0.00
2013-1-27,43.0,31.4,22.0,43.0,27.9,19.2,100,88,61,30.39,30.12,14,3,15,0.28
2013-1-28,58.0,52.7,42.0,58.0,52.1,42.0,100,98,84,30.15,30.08,17,4,17,0.24
2013-1-29,67.0,60.8,56.0,64.3,60.3,56.0,100,98,90,30.10,29.57,24,5,25,0.01
2013-1-30,68.0,48.1,28.0,65.8,47.5,25.4,100,98,85,29.73,29.39,22,6,25,0.98
2013-1-31,33.0,25.2,12.0,28.0,20.8,8.9,100,84,62,30.08,29.72,25,6,25,0.89
2013-2-1,21.0,10.7,4.0,15.4,8.5,4.0,100,91,65,30.36,30.08,17,4,17,0.00
2013-2-2,32.0,25.1,14.0,31.0,24.1,14.0,100,96,69,30.20,29.93,11,3,14,0.04
2013-2-3,28.0,20.9,15.0,27.3,20.3,15.0,100,98,79,30.04,29.88,11,2,19,0.00
2013-2-4,40.0,28.7,15.0,38.0,26.9,15.0,100,94,64,30.02,29.74,10,2,15,0.12
2013-2-5,45.0,34.3,22.0,38.4,32.3,22.0,100,93,70,29.98,29.81,9,2,15,0.02
2013-2-6,40.0,34.4,30.0,36.3,32.2,30.0,100,92,73,30.19,29.99,9,3,11,0.00
2013-2-7,67.0,46.1,30.0,53.0,38.3,30.0,100,78,36,30.07,29.79,9,2,13,0.26
2013-2-8,50.0,35.8,33.0,50.0,35.2,30.1,100,98,89,30.27,29.81,16,5,18,0.05
2013-2-9,47.0,34.5,20.0,33.0,26.7,20.0,100,76,45,30.32,30.07,12,3,15,0.00
2013-2-10,53.0,44.9,36.0,53.0,39.9,24.4,100,83,60,30.07,29.72,13,4,22,0.23
2013-2-11,54.0,45.3,36.0,54.0,35.7,29.3,100,70,51,30.02,29.72,15,5,26,0.00
2013-2-12,52.0,38.7,26.0,35.0,30.2,26.0,100,74,39,30.09,29.83,7,2,11,0.00
2013-2-13,48.0,36.6,31.0,35.0,31.3,25.3,100,84,43,29.84,29.73,11,3,14,0.00
2013-2-14,56.0,43.0,34.0,42.1,36.7,30.7,100,81,52,29.97,29.79,16,4,16,0.00
2013-2-15,41.0,32.9,22.0,35.7,26.7,17.8,100,80,45,30.09,29.91,17,3,17,0.00
2013-2-16,32.0,24.0,17.0,24.0,16.3,9.5,100,75,40,30.08,30.01,15,3,19,0.00
2013-2-17,43.0,26.8,11.0,24.0,15.1,10.5,100,66,31,30.17,30.03,7,2,10,0.00
2013-2-18,62.0,44.6,29.0,47.7,31.9,16.5,100,63,36,30.04,29.62,13,5,22,0.41
2013-2-19,47.0,30.3,23.0,47.0,25.7,15.6,100,83,68,30.09,29.61,19,7,23,0.19
2013-2-20,32.0,23.1,15.0,18.1,15.1,12.6,94,72,52,30.26,30.09,11,4,16,0.00
2013-2-21,35.0,25.8,17.0,31.0,22.3,15.8,100,88,62,30.24,29.86,16,4,17,0.00
2013-2-22,40.0,35.5,31.0,40.0,34.9,31.0,100,98,88,29.94,29.74,11,3,14,0.41
2013-2-23,45.0,33.4,22.0,32.0,27.0,22.0,100,79,47,29.95,29.87,9,3,13,0.00
2013-2-24,51.0,33.2,17.0,34.0,25.8,17.0,100,78,42,30.09,29.89,7,1,9,0.00
2013-2-25,51.0,36.7,24.0,29.3,26.6,24.0,100,71,40,30.04,29.73,12,3,20,0.00
2013-2-26,45.0,41.2,36.0,45.0,38.1,26.0,100,91,55,29.73,29.32,15,3,20,0.99
2013-2-27,41.0,35.2,32.0,41.0,35.2,32.0,100,100,96,29.69,29.48,12,5,17,0.03
2013-2-28,38.0,34.0,31.0,38.0,34.0,31.0,100,100,100,29.93,29.67,12,4,14,0.06
2013-3-1,37.0,33.0,31.0,37.0,33.0,31.0,100,100,100,29.97,29.89,9,3,10,0.06
2013-3-2,32.0,29.8,27.0,32.0,28.4,24.3,100,95,73,30.03,29.95,14,4,20,0.01
2013-3-3,41.0,29.2,19.0,28.3,22.7,16.3,100,80,41,30.05,29.98,9,2,12,0.00
2013-3-4,42.0,31.5,17.0,30.0,22.2,17.0,100,72,43,30.03,29.85,9,3,16,0.00
2013-3-5,41.0,36.6,28.0,40.0,32.6,26.5,100,87,56,29.85,29.59,16,4,23,0.21
2013-3-6,32.0,30.2,29.0,32.0,30.2,29.0,100,100,100,30.20,29.70,14,4,19,0.07
2013-3-7,40.0,33.0,28.0,40.0,31.5,28.0,100,95,81,30.32,30.19,8,2,9,0.07
2013-3-8,52.0,38.2,25.0,37.6,30.3,25.0,100,76,47,30.42,30.26,9,2,13,0.00
2013-3-9,61.0,47.7,33.0,36.7,32.8,28.1,89,59,36,30.25,29.95,10,4,15,0.00
2013-3-10,70.0,60.6,53.0,50.0,38.0,34.5,72,44,28,29.96,29.75,15,6,24,0.00
2013-3-11,58.0,47.7,36.0,55.0,44.8,33.1,100,90,70,29.85,29.62,13,5,20,0.01
2013-3-12,49.0,39.4,34.0,34.3,29.4,24.7,91,69,42,30.01,29.85,12,5,17,0.00
2013-3-13,36.0,35.4,35.0,31.9,28.3,26.9,85,75,72,30.01,29.99,10,5,20,0.00
2013-3-14,35.0,33.2,32.0,34.0,33.0,32.0,100,99,91,30.18,30.10,6,2,7,0.01
2013-3-15,60.0,43.5,26.0,46.0,37.0,26.0,100,81,51,30.10,29.68,8,2,12,0.05
2013-3-16,64.0,54.6,40.0,52.8,45.2,35.6,91,71,56,29.96,29.61,16,5,20,0.00
2013-3-17,40.0,35.9,34.0,37.0,35.1,33.7,100,97,84,30.03,29.82,13,5,17,0.53
2013-3-18,48.0,39.8,34.0,48.0,39.8,34.0,100,100,98,29.83,29.59,13,4,20,2.11
2013-3-19,46.0,36.3,26.0,37.0,23.9,15.4,100,65,30,30.08,29.79,16,5,21,0.00
2013-3-20,36.0,28.9,22.0,25.0,18.1,9.8,100,66,45,30.06,29.94,15,4,22,0.00
2013-3-21,38.0,27.2,20.0,18.2,12.8,9.6,90,56,34,29.95,29.92,9,2,13,0.00
2013-3-22,52.0,32.4,14.0,31.5,18.5,13.8,100,65,27,30.01,29.92,10,1,13,0.00
2013-3-23,58.0,45.1,36.0,27.6,25.1,21.4,68,47,29,30.01,29.79,11,3,15,0.00
2013-3-24,43.0,36.4,32.0,38.2,32.4,25.6,100,88,51,29.79,29.32,11,4,19,0.12
2013-3-25,33.0,31.2,29.0,33.0,31.2,29.0,100,100,100,29.95,29.39,12,4,17,0.14
2013-3-26,42.0,35.2,30.0,38.1,30.0,22.4,100,83,51,30.21,29.95,11,4,15,0.07
2013-3-27,49.0,35.9,21.0,36.0,27.0,21.0,100,73,45,30.30,30.18,9,2,13,0.00
2013-3-28,57.0,39.1,20.0,37.0,27.3,20.0,100,69,34,30.34,30.22,8,2,12,0.00
2013-3-29,65.0,44.7,27.0,38.0,31.3,27.0,100,67,28,30.28,30.17,8,1,11,0.00
2013-3-30,63.0,47.9,27.0,43.2,35.4,27.0,100,67,38,30.17,29.91,9,2,14,0.00
2013-3-31,61.0,51.7,47.0,56.0,46.8,41.8,100,85,50,29.91,29.79,12,3,15,0.28
2013-4-1,53.0,44.6,30.0,44.6,27.7,18.9,82,54,30,30.08,29.81,12,4,22,0.00
2013-4-2,52.0,37.3,21.0,29.4,19.6,12.9,100,55,25,30.25,30.06,16,2,17,0.00
2013-4-3,53.0,38.7,22.0,26.5,19.8,15.1,100,54,25,30.36,30.18,11,3,19,0.00
2013-4-4,64.0,47.2,36.0,27.0,21.6,17.3,59,38,21,30.24,29.94,9,2,14,0.00
2013-4-5,66.0,48.8,28.0,38.9,30.3,25.9,100,56,25,30.10,29.92,13,3,17,0.00
2013-4-6,75.0,57.1,38.0,39.6,34.4,28.7,77,45,26,30.10,29.85,14,4,20,0.00
2013-4-7,79.0,65.4,56.0,59.0,48.1,39.1,100,57,33,29.99,29.84,11,4,17,0.25
2013-4-8,75.0,63.6,55.0,60.4,56.7,55.0,100,81,53,29.96,29.86,10,2,17,0.00
2013-4-9,81.0,70.0,56.0,62.9,59.5,55.3,100,72,44,30.05,29.95,15,4,19,0.00
2013-4-10,84.0,74.1,65.0,67.4,63.8,60.5,95,72,49,29.98,29.77,12,4,21,0.00
2013-4-11,75.0,61.9,50.0,64.8,57.2,50.0,100,87,54,29.81,29.54,13,5,22,1.25
2013-4-12,50.0,45.9,40.0,49.0,38.2,33.5,100,76,53,29.89,29.59,17,5,20,0.01
2013-4-13,59.0,47.6,35.0,41.1,36.6,34.4,100,70,41,30.00,29.90,15,3,24,0.00
2013-4-14,77.0,58.4,39.0,47.9,42.1,37.7,100,61,28,29.95,29.83,12,4,16,0.00
2013-4-15,74.0,64.8,58.0,57.3,53.8,47.4,84,68,53,30.00,29.86,11,4,20,0.00
2013-4-16,77.0,66.1,58.0,68.8,62.0,55.4,100,88,65,30.14,29.91,16,3,25,0.19
2013-4-17,81.0,64.0,55.0,73.4,63.0,55.0,100,97,71,30.14,29.89,13,4,20,0.86
2013-4-18,82.0,71.9,64.0,71.2,64.9,59.3,100,82,51,29.89,29.60,14,5,27,0.06
2013-4-19,64.0,42.8,39.0,61.0,38.4,30.9,100,85,62,29.97,29.57,15,5,20,0.77
2013-4-20,57.0,43.7,29.0,41.0,31.5,27.1,100,67,37,30.32,29.96,13,3,14,0.00
2013-4-21,63.0,47.8,35.0,34.0,30.5,27.6,84,54,31,30.47,30.29,12,3,14,0.00
2013-4-22,76.0,56.5,34.0,43.4,37.8,30.5,100,54,29,30.29,30.09,7,2,11,0.00
2013-4-23,68.0,59.5,49.0,63.0,51.2,41.9,100,75,60,30.09,29.81,9,2,18,0.06
2013-4-24,67.0,46.1,33.0,61.2,44.2,33.0,100,94,64,30.18,29.81,16,4,19,0.46
2013-4-25,61.0,45.7,28.0,48.0,35.4,28.0,100,73,34,30.32,30.15,15,3,19,0.00
2013-4-26,69.0,51.0,32.0,41.5,36.9,32.0,100,65,34,30.44,30.28,9,2,12,0.00
2013-4-27,62.0,54.1,46.0,57.2,49.2,40.7,100,84,62,30.31,29.96,15,2,15,0.02
2013-4-28,62.0,57.4,55.0,62.0,57.3,55.0,100,100,93,29.96,29.84,13,2,13,0.25
2013-4-29,73.0,61.2,54.0,62.0,55.6,52.5,100,84,53,30.01,29.90,14,2,14,0.00
2013-4-30,85.0,68.2,51.0,60.6,55.8,51.0,100,69,41,30.06,29.91,12,3,12,0.00
2013-5-1,88.0,71.1,52.0,64.0,56.2,52.0,100,64,36,30.20,30.03,12,1,12,0.00
2013-5-2,81.0,69.1,60.0,61.7,58.9,55.4,100,72,49,30.20,30.06,12,2,13,0.00
2013-5-3,78.0,67.7,60.0,67.0,59.4,54.6,100,78,46,30.06,29.89,13,3,22,0.26
2013-5-4,62.0,57.4,53.0,61.0,55.4,49.5,100,94,67,29.98,29.88,9,2,15,0.63
2013-5-5,55.0,53.1,52.0,55.0,53.1,52.0,100,100,100,29.97,29.86,10,4,16,0.86
2013-5-6,69.0,60.1,52.0,63.0,57.3,52.0,100,92,67,29.95,29.81,10,4,16,0.04
2013-5-7,76.0,64.2,56.0,63.1,58.2,54.0,100,84,50,30.01,29.91,9,3,13,0.00
2013-5-8,82.0,66.2,53.0,66.0,59.0,53.0,100,82,40,30.07,29.93,7,1,12,0.00
2013-5-9,85.0,66.8,53.0,68.0,60.4,53.0,100,84,35,30.08,29.91,7,2,11,0.04
2013-5-10,69.0,65.3,58.0,69.0,64.8,58.0,100,98,91,29.93,29.84,7,2,10,0.20
2013-5-11,65.0,55.3,49.0,63.0,50.8,35.4,100,87,51,30.02,29.89,9,4,13,0.05
2013-5-12,60.0,49.9,34.0,44.7,34.0,27.4,100,59,31,30.13,30.00,13,3,23,0.00
2013-5-13,68.0,52.1,33.0,49.0,36.3,30.2,100,63,27,30.22,30.05,10,2,16,0.00
2013-5-14,86.0,67.5,47.0,60.6,50.8,39.7,87,58,40,30.09,29.89,12,3,17,0.00
2013-5-15,89.0,78.9,67.0,64.2,60.6,58.6,86,55,39,30.01,29.89,14,4,14,0.00
2013-5-16,74.0,67.6,62.0,70.0,63.1,57.1,100,87,65,29.99,29.89,16,2,16,1.14
2013-5-17,81.0,67.6,58.0,74.5,65.6,58.0,100,94,56,30.07,29.96,10,1,10,0.01
2013-5-18,79.0,70.4,64.0,71.3,67.7,64.0,100,92,66,30.06,29.98,12,1,12,0.00
2013-5-19,91.0,76.0,61.0,76.1,68.1,61.0,100,80,47,30.05,29.90,11,2,11,0.00
2013-5-20,87.0,77.2,68.0,76.4,71.6,67.0,100,85,58,30.01,29.88,15,3,15,0.00
2013-5-21,83.0,73.3,63.0,75.7,67.4,63.0,100,84,54,29.97,29.82,12,3,19,0.53
2013-5-22,77.0,70.1,63.0,70.8,65.3,59.9,100,86,60,29.83,29.77,10,2,14,0.00
2013-5-23,70.0,62.5,51.0,65.1,59.2,49.6,100,90,63,30.12,29.80,15,4,16,0.01
2013-5-24,71.0,55.4,41.0,51.2,45.6,40.8,100,74,35,30.35,30.12,10,3,15,0.00
2013-5-25,73.0,55.3,42.0,57.7,48.7,41.3,100,83,32,30.37,30.20,11,2,12,0.12
2013-5-26,72.0,59.9,50.0,62.8,55.3,50.0,100,87,53,30.28,30.12,13,2,13,0.18
2013-5-27,86.0,70.5,59.0,69.7,62.1,59.0,100,79,47,30.13,29.94,17,3,19,0.09
2013-5-28,86.0,74.0,63.0,72.3,67.0,63.0,100,81,51,30.03,29.93,13,2,19,0.01
2013-5-29,90.0,78.1,67.0,68.4,63.9,60.0,98,64,38,30.14,29.99,10,2,15,0.00
2013-5-30,88.0,78.7,70.0,70.9,68.5,65.9,95,73,52,30.14,30.01,12,3,19,0.00
2013-5-31,79.0,72.9,64.0,76.4,71.0,64.0,100,94,79,30.05,29.92,9,3,15,1.29
2013-6-1,77.0,70.1,64.0,74.0,69.2,64.0,100,97,85,29.95,29.81,15,3,22,0.88
2013-6-2,75.0,68.3,63.0,68.4,64.3,60.1,100,88,62,29.97,29.86,12,3,12,0.00
2013-6-3,73.0,63.2,56.0,63.0,56.3,51.8,100,81,51,30.08,29.96,9,3,11,0.00
2013-6-4,79.0,64.9,48.0,60.0,54.9,48.0,100,73,46,30.14,30.03,9,2,13,0.00
2013-6-5,87.0,72.1,59.0,66.2,58.1,50.3,94,63,42,30.06,29.87,7,1,11,0.00
2013-6-6,83.0,71.7,64.0,76.3,67.2,62.3,100,88,54,29.87,29.78,7,2,10,2.32
2013-6-7,81.0,68.6,62.0,68.0,64.0,58.9,100,87,52,29.89,29.80,9,2,12,0.00
2013-6-8,82.0,70.6,61.0,73.2,64.4,61.0,100,83,52,30.02,29.87,6,1,7,0.36
2013-6-9,86.0,72.6,63.0,72.2,66.6,59.3,100,84,42,30.07,29.85,8,2,13,0.00
2013-6-10,79.0,70.5,65.0,73.4,67.9,64.7,100,92,67,29.91,29.80,7,2,12,0.28
2013-6-11,89.0,75.4,62.0,73.2,66.4,60.5,99,77,46,30.06,29.91,7,2,10,0.00
2013-6-12,94.0,82.2,72.0,80.8,74.6,71.7,100,80,52,30.02,29.79,9,2,16,0.00
2013-6-13,83.0,76.5,66.0,74.4,60.8,52.7,79,60,40,29.99,29.75,17,4,17,0.20
2013-6-14,85.0,71.0,55.0,65.7,60.2,55.0,100,72,41,30.12,29.94,10,2,10,0.00
2013-6-15,89.0,73.9,59.0,68.5,63.2,59.0,100,74,42,30.15,30.01,14,1,14,0.00
2013-6-16,76.0,71.9,68.0,75.0,69.7,64.4,100,93,72,30.07,29.97,12,1,12,0.50
2013-6-17,91.0,75.8,65.0,77.3,70.2,64.1,100,85,51,30.03,29.91,14,1,17,0.48
2013-6-18,88.0,71.0,63.0,75.8,66.4,61.0,100,87,56,29.99,29.88,6,1,13,0.13
2013-6-19,85.0,72.8,63.0,70.5,64.5,59.7,95,77,54,30.14,29.98,9,2,12,0.01
2013-6-20,91.0,76.0,61.0,69.5,63.2,57.7,94,68,39,30.25,30.10,8,2,11,0.00
2013-6-21,95.0,78.4,62.0,75.4,67.8,59.0,96,73,40,30.27,30.09,7,1,12,0.00
2013-6-22,93.0,78.3,69.0,76.5,71.6,65.9,100,83,48,30.23,30.06,9,2,15,0.00
2013-6-23,90.0,76.7,65.0,76.8,71.1,63.5,99,84,51,30.18,30.07,7,2,12,0.00
2013-6-24,81.0,75.0,70.0,77.1,73.9,69.7,100,96,82,30.18,30.07,6,2,10,0.00
2013-6-25,93.0,79.8,67.0,79.5,73.4,65.8,100,83,55,30.12,29.96,7,2,17,0.12
2013-6-26,83.0,70.4,66.0,81.1,68.9,64.9,100,95,87,30.03,29.76,15,2,23,2.65
2013-6-27,90.0,76.8,68.0,82.7,72.8,65.9,96,88,63,29.89,29.79,10,2,12,0.05
2013-6-28,88.0,78.4,69.0,74.1,67.0,59.7,95,71,41,29.80,29.69,17,3,20,0.00
2013-6-29,83.0,70.0,63.0,73.2,65.0,56.1,98,85,58,29.69,29.62,13,1,13,0.48
2013-6-30,65.0,64.5,64.0,56.9,56.2,55.5,76,74,74,29.68,29.67,1,0,6,0.00
2013-7-1,72.0,69.5,66.0,68.9,63.9,57.4,90,83,74,29.93,29.89,10,4,12,0.01
2013-7-2,81.0,70.9,65.0,73.5,64.1,55.7,96,80,64,30.03,29.91,9,2,10,0.00
2013-7-3,82.0,71.0,61.0,72.8,63.0,52.9,95,76,61,30.16,30.01,6,1,10,0.00
2013-7-4,75.0,68.7,62.0,72.5,62.3,52.8,92,80,68,30.17,30.08,7,1,10,0.00
2013-7-5,85.0,72.7,64.0,75.4,66.6,56.9,96,82,65,30.18,30.07,7,2,10,0.00
2013-7-6,79.0,71.1,67.0,74.8,65.1,58.2,96,82,71,30.14,30.08,6,2,10,0.11
2013-7-7,87.0,74.9,65.0,76.5,66.0,56.9,96,75,51,30.17,30.06,7,1,9,0.00
2013-7-8,89.0,77.4,67.0,79.1,69.6,58.4,98,78,60,30.23,30.10,10,1,10,0.00
2013-7-9,92.0,82.4,74.0,81.0,76.2,70.5,99,83,59,30.16,30.05,6,1,11,0.00
2013-7-10,86.0,78.1,68.0,83.0,75.0,59.6,98,90,63,30.10,29.87,18,2,19,0.21
2013-7-11,71.0,70.1,66.0,65.3,61.7,59.7,96,75,68,30.05,29.97,9,1,9,0.00
2013-7-12,85.0,72.7,60.0,67.6,60.2,54.5,98,68,42,30.17,30.04,12,2,12,0.00
2013-7-13,86.0,74.1,62.0,72.1,64.9,58.1,99,76,46,30.16,30.06,13,2,13,0.00
2013-7-14,93.0,80.0,68.0,79.4,70.6,64.3,99,76,46,30.26,30.12,13,2,13,0.04
2013-7-15,92.0,80.8,72.0,79.1,70.5,62.8,99,72,51,30.37,30.23,14,2,14,0.01
2013-7-16,95.0,82.7,70.0,80.4,71.0,60.9,98,70,46,30.43,30.30,9,1,9,0.00
2013-7-17,94.0,83.2,72.0,83.0,72.6,62.8,100,73,48,30.42,30.27,7,2,10,0.00
2013-7-18,97.0,85.1,73.0,82.0,72.6,64.2,99,69,43,30.29,30.12,7,1,8,0.00
2013-7-19,94.0,83.5,74.0,82.4,74.7,69.2,100,77,52,30.14,29.99,9,1,10,0.00
2013-7-20,93.0,77.3,68.0,79.1,72.7,63.0,100,87,52,30.03,29.92,12,2,19,0.36
2013-7-21,92.0,77.4,67.0,79.1,68.6,58.8,96,76,48,30.06,29.94,5,1,13,0.00
2013-7-22,84.0,74.1,69.0,80.7,67.6,57.7,95,81,56,29.98,29.86,7,2,13,0.32
2013-7-23,91.0,77.0,67.0,84.0,70.5,58.4,99,81,63,29.93,29.83,7,2,13,0.06
2013-7-24,80.0,70.8,59.0,71.8,62.8,57.9,100,78,51,30.03,29.90,9,3,11,0.00
2013-7-25,81.0,69.4,55.0,64.4,57.7,51.6,100,71,39,30.15,30.00,9,2,10,0.00
2013-7-26,85.0,70.4,56.0,69.1,60.5,50.2,99,74,45,30.14,30.01,7,1,10,0.00
2013-7-27,79.0,69.4,61.0,72.2,60.0,55.5,96,73,50,30.01,29.93,9,3,16,0.47
2013-7-28,76.0,64.1,49.0,62.7,53.0,43.7,98,70,43,30.09,29.94,8,2,12,0.00
2013-7-29,84.0,67.8,54.0,67.9,56.4,47.3,96,70,40,30.22,30.06,7,1,10,0.00
2013-7-30,83.0,70.2,61.0,71.9,63.4,55.5,98,80,54,30.24,30.11,12,2,12,0.18
2013-7-31,79.0,69.6,65.0,77.4,63.6,56.5,98,82,70,30.12,30.00,7,2,7,0.50
2013-8-1,85.0,73.9,65.0,76.1,61.6,55.9,96,67,46,30.10,29.98,9,2,13,0.10
2013-8-2,86.0,72.0,59.0,74.5,63.7,50.7,94,76,53,30.10,29.99,7,1,9,0.00
2013-8-3,87.0,76.5,68.0,76.8,70.4,60.9,100,83,60,30.09,29.98,10,2,12,0.00
2013-8-4,82.0,71.1,59.0,70.7,60.2,52.3,100,73,39,30.22,30.09,9,2,11,0.00
2013-8-5,85.0,70.6,55.0,67.9,58.9,52.1,97,70,39,30.15,29.98,9,1,11,0.00
2013-8-6,83.0,75.1,69.0,80.4,73.2,66.9,100,94,79,30.01,29.93,7,1,9,0.00
2013-8-7,87.0,77.1,70.0,81.1,73.6,65.3,100,89,72,29.99,29.92,6,1,8,0.00
2013-8-8,91.0,78.7,71.0,81.1,72.1,64.9,100,81,59,30.04,29.93,6,1,17,0.57
2013-8-9,87.0,76.4,71.0,81.7,71.6,67.6,100,86,63,30.08,29.95,7,1,9,0.01
2013-8-10,89.0,77.5,70.0,74.7,70.1,65.5,99,80,52,30.18,30.07,7,1,9,0.00
2013-8-11,87.0,76.0,65.0,77.4,65.2,59.4,100,72,48,30.19,30.09,7,1,12,0.00
2013-8-12,86.0,73.9,62.0,78.1,67.6,56.4,100,82,66,30.12,29.94,6,1,9,0.00
2013-8-13,81.0,70.8,59.0,67.0,61.6,52.8,90,73,54,30.09,29.91,15,3,15,0.00
2013-8-14,75.0,63.9,49.0,59.1,52.5,47.3,100,70,42,30.21,30.08,13,3,13,0.00
2013-8-15,75.0,62.7,48.0,61.6,54.4,46.4,100,77,48,30.20,30.11,8,2,10,0.00
2013-8-16,82.0,68.0,53.0,63.1,57.6,50.1,100,73,43,30.20,30.08,9,2,12,0.00
2013-8-17,84.0,70.7,58.0,67.9,61.5,57.0,100,76,41,30.23,30.13,7,2,10,0.00
2013-8-18,87.0,72.5,59.0,69.8,62.2,55.9,100,75,35,30.24,30.11,9,2,11,0.00
2013-8-19,89.0,73.8,58.0,70.8,62.6,56.3,100,73,39,30.22,30.11,7,1,9,0.00
2013-8-20,92.0,74.2,62.0,73.5,66.7,59.3,100,81,40,30.22,30.10,7,1,13,0.00
2013-8-21,90.0,76.8,65.0,78.1,69.0,62.3,100,79,49,30.24,30.12,6,1,9,0.00
2013-8-22,91.0,77.7,66.0,76.8,69.9,63.3,100,79,49,30.20,30.08,7,2,11,0.00
2013-8-23,90.0,78.2,69.0,74.5,68.5,64.2,99,75,44,30.19,30.08,9,2,12,0.00
2013-8-24,91.0,76.2,63.0,70.5,63.2,55.0,100,70,31,30.33,30.16,8,1,13,0.00
2013-8-25,93.0,75.1,58.0,70.7,61.4,55.1,100,69,32,30.39,30.24,7,1,11,0.00
2013-8-26,91.0,77.9,64.0,76.9,70.8,63.1,100,81,49,30.32,30.15,7,1,10,0.00
2013-8-27,93.0,79.9,71.0,79.1,74.6,69.2,100,86,53,30.16,30.05,7,1,9,0.00
2013-8-28,95.0,82.7,72.0,77.8,72.1,67.8,100,74,44,30.07,30.02,11,3,14,0.00
2013-8-29,93.0,82.4,74.0,78.7,72.4,65.1,100,75,44,30.12,30.02,7,2,12,0.00
2013-8-30,95.0,80.6,66.0,77.5,71.4,66.0,100,77,45,30.06,29.91,9,1,10,0.00
2013-8-31,97.0,83.2,68.0,78.0,74.4,68.0,100,78,51,29.97,29.83,12,3,19,0.59
2013-9-1,87.0,76.1,67.0,78.9,72.9,67.0,100,91,63,29.95,29.78,8,2,13,0.16
2013-9-2,89.0,76.7,67.0,76.5,69.0,64.6,100,80,50,29.97,29.85,9,2,12,0.00
2013-9-3,79.0,70.3,62.0,68.8,60.3,53.7,100,74,45,30.12,29.94,10,3,12,0.00
2013-9-4,85.0,69.1,54.0,66.1,59.8,54.0,100,77,42,30.23,30.07,7,1,9,0.00
2013-9-5,89.0,71.5,58.0,69.5,62.5,58.0,100,78,40,30.27,30.14,8,1,9,0.00
2013-9-6,90.0,74.3,63.0,70.7,64.6,59.3,100,75,41,30.28,30.12,7,2,9,0.00
2013-9-7,88.0,74.7,62.0,72.7,67.0,61.7,100,80,48,30.16,30.01,7,1,11,0.00
2013-9-8,89.0,75.8,67.0,78.4,70.2,62.8,100,85,42,30.07,29.98,7,1,10,0.07
2013-9-9,95.0,79.7,67.0,78.4,70.6,64.3,99,77,45,30.11,30.01,9,2,13,0.00
2013-9-10,95.0,81.2,72.0,80.1,75.4,71.4,100,85,49,30.22,30.07,9,2,15,0.00
2013-9-11,72.0,71.6,71.0,72.0,71.6,71.0,100,100,100,30.17,30.16,4,1,6,0.00
2013-9-13,64.0,55.4,51.0,54.4,51.2,47.5,100,88,56,30.07,30.06,4,0,4,0.00
2013-9-14,75.0,58.7,44.0,54.0,48.6,44.0,100,74,37,30.21,30.06,10,1,10,0.00
2013-9-15,81.0,63.1,44.0,60.2,52.4,44.0,100,73,37,30.17,30.05,13,1,13,0.00
2013-9-16,71.0,65.6,58.0,64.2,61.8,58.0,100,88,71,30.27,30.08,13,3,13,0.00
2013-9-17,77.0,63.7,53.0,59.7,55.6,51.2,100,79,42,30.31,30.14,13,2,13,0.00
2013-9-18,79.0,66.5,56.0,74.7,65.2,56.0,100,96,76,30.17,30.08,10,1,10,0.03
2013-9-19,83.0,71.6,66.0,79.4,70.9,66.0,100,98,85,30.14,30.00,12,2,12,0.85
2013-9-20,83.0,71.8,67.0,76.4,70.7,67.0,100,97,72,30.01,29.85,9,1,10,0.17
2013-9-21,73.0,63.6,52.0,67.0,57.5,49.9,100,84,48,29.89,29.79,8,2,12,0.21
2013-9-22,73.0,58.7,45.0,58.7,51.9,45.0,100,82,47,30.04,29.88,11,2,12,0.00
2013-9-23,75.0,59.2,44.0,57.3,50.9,44.0,100,78,43,30.12,29.97,12,2,12,0.00
2013-9-24,82.0,65.0,51.0,66.7,58.6,51.0,100,82,51,30.03,29.90,10,2,11,0.00
2013-9-25,82.0,69.5,60.0,67.3,63.6,59.4,100,84,53,29.95,29.86,11,2,11,0.00
2013-9-26,83.0,66.1,53.0,62.0,56.0,48.9,100,75,33,30.10,29.92,9,1,9,0.00
2013-9-27,85.0,66.0,51.0,65.0,56.2,51.0,100,76,38,30.23,30.05,11,1,12,0.00
2013-9-28,86.0,67.3,51.0,65.0,58.2,51.0,100,77,36,30.20,30.05,7,1,12,0.00
2013-9-29,64.0,62.1,58.0,64.0,62.1,57.0,100,100,97,30.05,30.00,9,1,9,0.32
2013-9-30,72.0,64.6,62.0,71.0,64.3,60.5,100,99,88,30.03,29.98,7,1,7,0.04
2013-10-1,81.0,68.2,60.0,73.8,65.4,59.1,100,92,67,30.11,30.00,9,1,9,0.00
2013-10-2,77.0,69.9,63.0,77.0,68.7,60.2,100,96,88,30.14,30.06,7,1,7,0.02
2013-10-3,82.0,72.0,66.0,78.0,68.6,63.3,100,90,69,30.12,30.03,10,2,10,0.07
2013-10-4,85.0,73.2,65.0,78.1,70.9,62.9,100,93,70,30.13,30.03,10,1,12,0.00
2013-10-5,77.0,70.9,66.0,77.0,70.3,64.5,100,98,90,30.07,29.91,11,2,11,0.60
2013-10-6,68.0,59.6,48.0,68.0,57.5,44.9,100,93,65,29.94,29.78,13,2,13,2.31
2013-10-7,64.0,52.9,47.0,55.2,49.6,44.8,100,90,59,30.13,29.83,11,2,12,0.00
2013-10-8,73.0,56.0,42.0,61.0,47.6,41.0,100,77,43,30.27,30.13,14,2,14,0.00
2013-10-9,80.0,58.0,42.0,61.7,50.7,40.7,100,81,43,30.25,30.12,8,1,8,0.00
2013-10-10,53.0,51.0,49.0,51.9,49.1,46.5,97,93,90,30.13,30.12,0,0,0,0.00
2013-10-15,65.0,64.8,64.0,64.4,62.7,60.7,98,93,91,29.97,29.96,9,2,9,0.07
2013-10-16,64.0,57.7,47.0,62.2,54.7,47.0,100,90,69,29.99,29.90,9,2,10,0.17
2013-10-17,58.0,47.6,40.0,57.7,47.1,39.7,100,98,86,29.94,29.87,13,1,13,0.20
2013-10-18,70.0,53.0,39.0,60.1,46.7,38.2,100,83,43,30.04,29.92,11,1,12,0.00
2013-10-19,53.0,46.9,38.0,52.0,45.1,38.0,100,94,64,29.95,29.82,13,2,13,0.25
2013-10-20,67.0,50.3,36.0,52.2,42.8,35.5,100,79,44,30.03,29.91,14,2,14,0.00
2013-10-21,67.0,53.2,41.0,55.0,47.6,35.8,100,84,53,29.99,29.93,14,3,14,0.00
2013-10-22,57.0,45.0,29.0,47.0,35.5,29.0,100,73,38,30.04,29.75,12,1,12,0.02
2013-10-23,49.0,43.2,38.0,46.0,38.9,32.6,100,86,55,30.03,29.73,13,3,13,0.00
2013-10-24,41.0,37.3,29.0,40.0,36.0,27.3,100,95,64,30.24,30.01,13,2,13,0.01
2013-10-25,53.0,37.2,23.0,39.2,29.3,23.0,100,79,35,30.44,30.21,11,1,11,0.00
2013-10-26,60.0,43.4,28.0,43.8,35.5,28.0,100,77,47,30.21,29.95,16,2,16,0.00
2013-10-27,65.0,43.7,28.0,46.0,35.2,28.0,100,78,34,30.12,29.99,8,1,9,0.00
2013-10-28,68.0,45.1,28.0,45.4,35.4,28.0,100,76,29,30.24,30.01,9,1,9,0.00
2013-10-29,56.0,45.6,33.0,55.4,45.4,33.0,100,99,96,30.29,30.14,8,1,8,0.11
2013-10-30,69.0,60.9,54.0,69.0,59.2,52.0,100,94,83,30.14,30.00,10,1,10,0.29
2013-10-31,67.0,63.2,57.0,67.0,62.3,54.7,100,97,88,30.01,29.38,26,4,26,1.13
2013-11-1,67.0,55.7,47.0,60.4,50.3,45.9,100,84,49,29.79,29.46,17,4,17,0.01
2013-11-2,58.0,48.0,39.0,52.4,43.1,37.6,100,85,56,30.09,29.76,17,2,17,0.00
2013-11-3,60.0,43.1,28.0,49.6,35.8,28.0,100,80,36,30.32,30.07,8,1,8,0.00
2013-11-4,59.0,50.2,39.0,45.8,43.3,39.0,100,79,57,30.31,30.23,13,2,13,0.00
2013-11-5,64.0,55.3,48.0,53.2,47.9,44.6,100,78,52,30.36,30.16,11,2,11,0.01
2013-11-6,60.0,55.1,42.0,56.9,50.2,40.7,100,85,60,30.16,29.97,13,3,16,0.38
2013-11-7,53.0,42.8,32.0,44.0,34.9,27.5,100,77,38,30.30,30.09,12,3,12,0.00
2013-11-8,59.0,41.3,26.0,45.0,30.9,26.0,100,72,34,30.37,30.16,10,1,12,0.00
2013-11-9,65.0,50.9,36.0,49.3,37.9,28.7,94,63,42,30.16,30.07,17,2,17,0.01
2013-11-10,57.0,45.8,30.0,49.7,35.8,27.2,100,73,35,30.35,30.14,14,2,14,0.00
2013-11-11,60.0,43.9,27.0,51.0,35.6,27.0,100,79,32,30.25,30.10,19,2,19,0.01
2013-11-12,41.0,32.2,23.0,36.0,27.3,21.4,100,85,50,30.57,30.25,11,4,17,0.04
2013-11-13,43.0,29.3,15.0,34.0,20.8,15.0,100,75,35,30.59,30.30,12,1,12,0.00
2013-11-14,58.0,41.6,25.0,30.8,22.6,19.0,100,53,23,30.30,30.09,16,2,16,0.00
2013-11-15,56.0,46.2,36.0,48.0,31.8,20.0,100,60,39,30.10,30.03,12,3,12,0.00
2013-11-16,63.0,55.3,48.0,62.0,55.1,48.0,100,99,88,30.05,29.81,16,5,16,0.04
2013-11-17,68.0,61.6,52.0,68.0,59.7,45.0,100,94,63,29.83,29.45,16,6,24,1.12
2013-11-18,56.0,47.0,35.0,47.8,38.0,29.2,100,74,40,30.17,29.83,20,4,20,0.00
2013-11-19,49.0,35.7,27.0,36.2,31.1,27.0,100,86,47,30.30,30.17,13,2,13,0.00
2013-11-20,56.0,40.8,28.0,36.3,32.7,28.0,100,76,43,30.21,30.13,15,3,15,0.00
2013-11-21,61.0,52.1,47.0,54.0,46.0,35.2,100,81,61,30.24,30.14,10,2,10,0.07
2013-11-22,53.0,47.7,37.0,53.0,47.7,37.0,100,100,97,30.37,30.14,20,4,20,0.07
2013-11-23,37.0,29.8,19.0,37.0,23.2,10.7,100,78,50,30.54,30.33,19,5,19,0.00
2013-11-24,33.0,21.3,13.0,19.3,14.5,9.8,100,78,40,30.64,30.41,12,2,12,0.00
2013-11-25,38.0,29.3,18.0,33.0,21.1,14.3,100,75,39,30.41,30.10,12,2,12,0.00
2013-11-26,38.0,34.2,32.0,35.0,31.0,27.1,100,89,67,30.14,29.90,17,2,17,0.00
2013-11-27,32.0,23.5,14.0,28.6,17.6,8.5,100,79,50,30.23,29.94,15,4,17,0.00
2013-11-28,42.0,24.7,12.0,24.0,17.3,12.0,100,78,34,30.37,30.22,15,1,16,0.00
2013-11-29,45.0,28.8,14.0,33.0,21.5,14.0,100,78,40,30.56,30.37,9,1,9,0.00
2013-11-30,57.0,39.5,22.0,35.0,27.8,22.0,100,69,29,30.39,30.13,15,2,15,0.00
2013-12-1,59.0,45.7,34.0,42.1,34.5,25.4,100,67,45,30.14,29.90,11,1,11,0.00
2013-12-2,56.0,43.5,31.0,45.7,39.9,31.0,100,88,58,29.90,29.73,11,1,11,0.00
2013-12-3,54.0,45.3,34.0,54.0,45.3,34.0,100,100,100,29.80,29.70,12,2,12,0.00
2013-12-4,66.0,56.5,46.0,66.0,56.4,46.0,100,100,91,29.78,29.67,14,3,14,0.01
2013-12-5,66.0,42.1,28.0,66.0,41.8,28.0,100,99,88,30.13,29.77,15,4,15,0.16
2013-12-6,28.0,23.8,22.0,28.0,23.8,22.0,100,100,100,30.35,30.09,15,4,15,0.16
2013-12-7,29.0,19.4,9.0,29.0,19.3,9.0,100,100,92,30.54,30.35,12,3,12,0.06
2013-12-8,30.0,24.3,19.0,30.0,24.3,19.0,100,100,100,30.41,29.94,12,2,12,0.00
2013-12-9,32.0,26.6,21.0,31.0,25.6,20.0,100,96,72,30.18,29.94,12,2,12,0.01
2013-12-10,32.0,20.7,11.0,28.0,18.3,11.0,100,92,53,30.27,30.11,16,2,16,0.04
2013-12-11,36.0,18.6,6.0,33.7,17.4,6.0,100,95,74,30.47,30.24,16,2,16,0.05
2013-12-12,26.0,13.9,-1.0,16.1,6.4,-1.0,100,76,37,30.49,30.24,8,1,11,0.00
2013-12-13,44.0,27.6,12.0,34.0,21.6,11.8,100,82,45,30.24,30.01,13,2,13,0.14
2013-12-14,38.0,34.2,30.0,37.0,34.2,30.0,100,100,100,30.01,29.66,15,4,15,0.84
2013-12-15,30.0,26.5,24.0,30.0,26.4,24.0,100,100,93,30.05,29.88,16,4,16,0.00
2013-12-16,44.0,33.8,27.0,42.5,33.3,27.0,100,98,83,30.02,29.93,7,1,7,0.03
2013-12-17,34.0,28.3,25.0,34.0,28.3,24.0,100,100,100,30.10,29.93,9,3,14,0.00
2013-12-18,45.0,32.8,19.0,29.0,22.3,16.3,100,70,35,30.22,29.97,12,2,13,0.00
2013-12-19,58.0,50.9,42.0,52.8,41.3,24.7,89,70,50,30.03,29.89,15,4,15,0.00
2013-12-20,63.0,58.8,56.0,63.0,56.6,48.8,100,93,75,29.90,29.79,20,4,20,0.22
2013-12-21,61.0,53.3,47.0,61.0,53.3,47.0,100,100,100,29.81,29.47,15,2,15,4.32
2013-12-22,61.0,42.0,33.0,61.0,42.0,33.0,100,100,99,30.04,29.41,18,4,20,0.06
2013-12-23,33.0,27.3,22.0,33.0,27.3,22.0,100,100,100,30.34,30.04,13,4,13,0.00
2013-12-24,25.0,15.6,7.0,22.0,13.0,7.0,100,90,57,30.51,30.33,14,3,14,0.00
2013-12-25,32.0,26.1,18.0,30.8,22.5,16.6,100,87,63,30.36,30.15,12,3,12,0.00
2013-12-26,44.0,33.5,25.0,36.0,29.3,23.6,100,86,48,30.32,30.14,12,2,12,0.00
2013-12-27,53.0,37.0,24.0,38.0,31.7,24.0,100,84,49,30.36,30.22,10,1,10,0.00
2013-12-28,56.0,41.9,27.0,43.0,33.2,27.0,100,75,40,30.22,29.94,10,1,10,0.00
2013-12-29,47.0,36.8,27.0,47.0,35.9,27.0,100,97,64,30.03,29.81,17,3,17,0.20
2013-12-30,31.0,22.8,17.0,27.0,19.9,11.7,100,90,52,30.22,30.03,14,3,14,0.00
2013-12-31,35.0,25.4,20.0,26.4,21.5,18.3,100,86,53,30.31,30.11,9,2,12,0.00
2014-1-1,50.0,36.9,25.0,37.0,30.0,25.0,100,79,45,30.17,29.93,10,1,12,0.01
2014-1-2,36.0,23.2,10.0,36.0,23.2,10.0,100,100,97,30.27,29.79,19,4,19,0.10